[[{"header":{"parameterUnit":"m.s-1","parameterCategory":1,"la1":30.2991,"la2":30.254,"lo1":-89.0895,"lo2":-89.0444,"dy":0.0017,"dx":0.0017,"nx":28,"ny":28,"refTime":"2024-04-24T09:00:00:Z","depth":0,"parameterNumber":2,"parameterNumberName":"U-component_of_WINDS"},"data":[0,0,0,0,0,0,0,0,0,0,0,0,0,0,0,0,0,0,0,0,0,0,0,0,0,0,0,0,0,0,0,0,0,0,0,0,0,0,0,0,0,0,0,0,0,0,0,0,0,0,0,0,0,0,0,0,0,0,-1.5082,-1.5082,0,-1.505,-1.505,-1.5049,-1.5003,-1.5003,-1.5002,-1.5001,-1.4967,-1.4967,-1.4967,0,0,0,0,0,0,0,0,0,0,0,0,0,-1.5104,-1.5104,-1.5082,-1.5082,-1.5082,-1.505,-1.505,-1.5049,-1.5003,-1.5002,-1.5002,-1.5001,-1.4967,-1.4967,-1.4967,0,0,0,0,0,0,0,0,0,0,0,0,0,-1.5086,-1.5104,-1.5082,-1.5055,-1.5052,-1.505,-1.505,-1.5049,-1.5004,-1.5002,-1.5001,-1.5,-1.4968,-1.4967,-1.4967,-1.4989,0,0,-1.4966,-1.4966,0,0,0,0,0,0,0,0,-1.5087,-1.5085,-1.5059,-1.5057,-1.5054,-1.503,-1.5045,-1.5029,-1.5004,-1.5022,-1.5001,-1.5,-1.4989,-1.4987,-1.4983,-1.4988,-1.4986,-1.4966,-1.4966,-1.4966,-1.4966,0,0,0,0,0,0,0,-1.5088,-1.5086,-1.507,-1.5059,-1.5056,-1.5044,-1.504,-1.5042,-1.5013,-1.502,-1.5017,-1.5014,-1.4987,-1.4984,-1.4982,-1.4986,-1.4966,-1.4966,-1.4966,-1.4966,-1.5007,-1.5008,0,0,0,0,0,0,-1.5094,-1.5087,-1.5071,-1.5069,-1.5068,-1.5045,-1.504,-1.5038,-1.5012,-1.5007,-1.5015,-1.5012,-1.4985,-1.4983,-1.4981,-1.5005,-1.4966,-1.4966,-1.4966,-1.5006,-1.5008,-1.5009,0,0,0,0,0,0,-1.5094,-1.5093,-1.5072,-1.5077,-1.5074,-1.5046,-1.5044,-1.5038,-1.5035,-1.5008,-1.5003,-1.5017,-1.4984,-1.4981,-1.4988,-1.5004,-1.4966,-1.4966,-1.5005,-1.5006,-1.5008,-1.5055,0,0,0,0,0,0,-1.5095,-1.5093,-1.5101,-1.5078,-1.5074,-1.5079,-1.5045,-1.5039,-1.5035,-1.503,-1.5009,-1.5004,-1.4983,-1.4988,-1.4988,-1.5003,-1.4965,-1.5003,-1.5005,-1.5008,-1.5052,-1.5058,-1.5063,0,0,0,0,0,-1.5096,-1.5115,-1.5102,-1.51,-1.5083,-1.508,-1.5078,-1.5053,-1.5036,-1.5044,-1.5027,-1.5004,-1.5002,-1.4989,-1.4988,-1.5003,-1.5002,-1.5005,-1.5007,-1.5049,-1.5057,-1.5063,0,0,0,0,0,0,-1.5141,-1.5112,-1.5096,-1.5109,-1.5098,-1.5073,-1.5082,-1.5062,-1.5056,-1.5052,-1.5021,-1.5017,-1.5027,-1.5016,-1.5002,-1.5024,-1.4999,-1.5001,-1.5031,-1.5038,-1.5044,-1.5046,-1.4965,0,0,0,0,0,-1.5153,-1.5153,-1.5127,-1.5141,-1.5136,-1.511,-1.5108,-1.509,-1.5077,-1.5072,-1.5055,-1.5043,-1.504,-1.5038,-1.5034,-1.505,-1.5045,-1.506,-1.5066,-1.5071,-1.5073,-1.5081,-1.5088,-1.5018,-1.5018,-1.5018,0,0,-1.5176,-1.516,-1.5162,-1.5149,-1.5138,-1.5139,-1.5106,-1.5109,-1.5109,-1.5072,-1.5077,-1.5065,-1.505,-1.5061,-1.5065,-1.5052,-1.5092,-1.5074,-1.5078,-1.5078,-1.5085,-1.5091,-1.5097,-1.502,-1.502,-1.5019,0,0,-1.522,-1.5208,-1.5218,-1.5208,-1.5192,-1.5174,-1.5177,-1.5155,-1.5146,-1.515,-1.5123,-1.5123,-1.5118,-1.5108,-1.5103,-1.5143,-1.5122,-1.5143,-1.5173,-1.5181,-1.5187,-1.5191,-1.5206,-1.5212,-1.5145,-1.5145,-1.5146,0,-1.5251,-1.5251,-1.5225,-1.5229,-1.5225,-1.5192,-1.5202,-1.5193,-1.5177,-1.5174,-1.516,-1.5153,-1.514,-1.5149,-1.5159,-1.5156,-1.5158,-1.5145,-1.5188,-1.5193,-1.5197,-1.521,-1.5216,-1.5148,-1.5148,-1.5147,-1.5147,0,-1.5291,-1.5291,-1.5301,-1.5287,-1.5283,-1.529,-1.5265,-1.5265,-1.5247,-1.5232,-1.5237,-1.5221,-1.5213,-1.5214,-1.5197,-1.522,-1.5213,-1.5194,-1.5168,-1.5206,-1.5218,-1.5223,-1.5152,-1.5151,-1.515,-1.5149,0,0,-1.5361,-1.5332,-1.5336,-1.5329,-1.531,-1.531,-1.5316,-1.5308,-1.5308,-1.5298,-1.5302,-1.5299,-1.5281,-1.5275,-1.5256,-1.5264,-1.5297,-1.5244,-1.5243,-1.5254,-1.5322,-1.5337,-1.5343,-1.5283,-1.5284,-1.5285,-1.5324,0,-1.5401,-1.5409,-1.5386,-1.54,-1.54,-1.5369,-1.5374,-1.5363,-1.5349,-1.5347,-1.5331,-1.533,-1.5306,-1.5303,-1.5308,-1.5292,-1.531,-1.5289,-1.5287,-1.5287,-1.5291,-1.5349,-1.5365,-1.5402,-1.5328,-1.5329,-1.533,0,-1.5448,-1.544,-1.5455,-1.5434,-1.5434,-1.5439,-1.543,-1.5429,-1.5415,-1.5404,-1.5398,-1.5377,-1.5381,-1.5357,-1.5362,-1.5348,-1.5346,-1.5338,-1.5339,-1.5337,-1.531,-1.535,-1.5413,-1.5419,-1.5337,-1.5336,-1.5336,0,-1.5498,-1.5492,-1.5499,-1.5494,-1.5471,-1.5475,-1.5466,-1.5451,-1.5448,-1.544,-1.5438,-1.5431,-1.5427,-1.5422,-1.54,-1.5384,-1.5408,-1.5381,-1.5399,-1.54,-1.5405,-1.5405,-1.5469,-1.5404,-1.5404,-1.5404,-1.5404,0,-1.5544,-1.5554,-1.5521,-1.5526,-1.5536,-1.551,-1.5521,-1.5508,-1.5496,-1.5497,-1.547,-1.5473,-1.5443,-1.5442,-1.5424,-1.5432,-1.543,-1.5422,-1.5417,-1.5424,-1.5425,-1.5422,-1.5419,-1.5405,-1.5405,-1.5405,-1.5405,0,-1.5602,-1.558,-1.5587,-1.5564,-1.5559,-1.5568,-1.5548,-1.5552,-1.5536,-1.5539,-1.5538,-1.5513,-1.5511,-1.5488,-1.548,-1.5469,-1.5483,-1.5473,-1.5487,-1.5484,-1.5503,-1.5501,-1.5567,-1.5574,-1.5505,-1.5506,-1.5506,0,-1.5633,-1.564,-1.5619,-1.5618,-1.561,-1.5609,-1.5606,-1.558,-1.5578,-1.5563,-1.5569,-1.5564,-1.5559,-1.5556,-1.5538,-1.5532,-1.5522,-1.5545,-1.552,-1.5528,-1.5522,-1.5522,-1.5522,-1.555,-1.5551,-1.5552,-1.5552,0,-1.5691,-1.568,-1.5676,-1.5669,-1.5666,-1.5659,-1.5651,-1.5652,-1.5623,-1.5622,-1.5619,-1.5615,-1.5608,-1.5604,-1.5595,-1.5585,-1.5564,-1.556,-1.5564,-1.5571,-1.5579,-1.5575,-1.5501,-1.5559,-1.5558,-1.5558,-1.5557,-1.5557,-1.5736,-1.5741,-1.5726,-1.5723,-1.5714,-1.5707,-1.5709,-1.5694,-1.5691,-1.5683,-1.5668,-1.5668,-1.5654,-1.564,-1.5632,-1.5631,-1.5619,-1.5624,-1.5626,-1.5627,-1.5631,-1.558,-1.5629,-1.5629,-1.5629,-1.5629,-1.5629,0,-1.5792,-1.5782,-1.5779,-1.5768,-1.5766,-1.5747,-1.5736,-1.5736,-1.5736,-1.5725,-1.5721,-1.5717,-1.5713,-1.5695,-1.5688,-1.5691,-1.5682,-1.5691,-1.569,-1.5688,-1.5642,-1.564,-1.5699,-1.5699,-1.5699,-1.5698,-1.5698,-1.5698,-1.5821,-1.5828,-1.5816,-1.5818,-1.5807,-1.5807,-1.5803,-1.5796,-1.5787,-1.5785,-1.5781,-1.5769,-1.5755,-1.5748,-1.5743,-1.5738,-1.5737,-1.5749,-1.574,-1.5698,-1.5691,-1.5685,-1.5682,-1.5749,-1.5749,-1.5786,-1.5786,-1.5787]},{"header":{"parameterUnit":"m.s-1","parameterCategory":1,"la1":30.2991,"la2":30.254,"lo1":-89.0895,"lo2":-89.0444,"dy":0.0017,"dx":0.0017,"nx":28,"ny":28,"refTime":"2024-04-24T09:00:00:Z","depth":0,"parameterNumber":3,"parameterNumberName":"V-component_of_WINDS"},"data":[0,0,0,0,0,0,0,0,0,0,0,0,0,0,0,0,0,0,0,0,0,0,0,0,0,0,0,0,0,0,0,0,0,0,0,0,0,0,0,0,0,0,0,0,0,0,0,0,0,0,0,0,0,0,0,0,0,0,3.5833,3.5832,0,3.5775,3.5774,3.5773,3.5685,3.5684,3.5682,3.568,3.562,3.562,3.562,0,0,0,0,0,0,0,0,0,0,0,0,0,3.5867,3.5867,3.5833,3.5832,3.5831,3.5775,3.5774,3.5773,3.5685,3.5683,3.5682,3.568,3.5621,3.562,3.562,0,0,0,0,0,0,0,0,0,0,0,0,0,3.5835,3.5867,3.5833,3.5781,3.5775,3.5775,3.5774,3.5773,3.5686,3.5683,3.5681,3.5679,3.5621,3.562,3.562,3.5666,0,0,3.562,3.5619,0,0,0,0,0,0,0,0,3.5837,3.5834,3.5789,3.5784,3.5778,3.5735,3.5764,3.5737,3.5686,3.572,3.568,3.5678,3.566,3.5657,3.5651,3.5663,3.5661,3.562,3.5619,3.5619,3.5619,0,0,0,0,0,0,0,3.5839,3.5836,3.581,3.5789,3.5782,3.576,3.5753,3.5759,3.5704,3.5717,3.571,3.5705,3.5657,3.5651,3.5649,3.566,3.562,3.5619,3.5619,3.5619,3.5707,3.5709,0,0,0,0,0,0,3.5849,3.5838,3.5812,3.5808,3.5803,3.5761,3.5753,3.5751,3.5704,3.5694,3.5707,3.5701,3.5653,3.5649,3.5647,3.5697,3.5619,3.5619,3.5619,3.5704,3.5707,3.571,0,0,0,0,0,0,3.585,3.5848,3.5814,3.5821,3.5815,3.5763,3.5762,3.5751,3.5746,3.5696,3.5686,3.5711,3.5651,3.5647,3.5662,3.5694,3.5619,3.5619,3.5701,3.5705,3.5708,3.5799,0,0,0,0,0,0,3.5852,3.5849,3.5866,3.5822,3.5815,3.5831,3.5763,3.5752,3.5746,3.5737,3.5697,3.5689,3.5649,3.5663,3.5662,3.5692,3.5619,3.5698,3.5703,3.5707,3.5793,3.5805,3.5815,0,0,0,0,0,3.5853,3.5893,3.5867,3.5864,3.5836,3.5833,3.5829,3.5782,3.5749,3.5765,3.5733,3.569,3.5691,3.5665,3.5663,3.5694,3.5696,3.5702,3.5707,3.5787,3.5802,3.5815,0,0,0,0,0,0,3.5941,3.5887,3.5857,3.5884,3.5864,3.5818,3.5837,3.58,3.5788,3.5781,3.5724,3.5715,3.5738,3.5717,3.569,3.5736,3.5686,3.5692,3.5748,3.5762,3.5774,3.5778,3.5619,0,0,0,0,0,3.5964,3.5967,3.5918,3.5947,3.5939,3.589,3.5887,3.5853,3.583,3.5821,3.579,3.5769,3.5764,3.5762,3.5755,3.5789,3.5779,3.5809,3.5821,3.5831,3.5836,3.5852,3.5865,3.5728,3.5728,3.5728,0,0,3.6011,3.5981,3.5986,3.5964,3.5944,3.5948,3.5883,3.589,3.5892,3.5821,3.5834,3.5811,3.5783,3.5808,3.5818,3.5792,3.5872,3.5838,3.5846,3.5846,3.5859,3.5873,3.5884,3.5731,3.5731,3.573,0,0,3.6098,3.6076,3.6097,3.6079,3.605,3.6017,3.6023,3.5983,3.5965,3.5976,3.5923,3.5925,3.5918,3.59,3.5891,3.5972,3.5931,3.5971,3.6031,3.6048,3.6059,3.6068,3.6097,3.6108,3.5977,3.5977,3.5977,0,3.6159,3.6163,3.6113,3.6123,3.6115,3.6051,3.6073,3.6057,3.6028,3.6023,3.5995,3.5985,3.5962,3.5982,3.6002,3.5996,3.6,3.5975,3.6061,3.607,3.6078,3.6105,3.6116,3.5982,3.5981,3.5981,3.598,0,3.624,3.6244,3.6264,3.6238,3.6232,3.6248,3.62,3.62,3.6167,3.6137,3.615,3.612,3.6106,3.6108,3.6076,3.6124,3.6109,3.6072,3.6021,3.6097,3.6121,3.6131,3.5989,3.5987,3.5986,3.5984,0,0,3.6381,3.6326,3.6335,3.6322,3.6286,3.6287,3.63,3.6286,3.6288,3.6269,3.6279,3.6275,3.624,3.6229,3.6194,3.6209,3.6275,3.617,3.6168,3.619,3.6326,3.6354,3.6367,3.6248,3.625,3.6251,3.6328,0,3.646,3.6479,3.6435,3.6465,3.6467,3.6407,3.6418,3.6397,3.637,3.6368,3.6338,3.6336,3.6291,3.6284,3.6296,3.6265,3.6301,3.6258,3.6256,3.6256,3.6265,3.638,3.6409,3.6484,3.6338,3.6339,3.634,0,3.6555,3.6543,3.6573,3.6535,3.6534,3.6545,3.6529,3.6528,3.6503,3.6482,3.6471,3.643,3.6439,3.6391,3.6404,3.6375,3.6372,3.6356,3.6358,3.6356,3.6303,3.638,3.6506,3.6517,3.6355,3.6353,3.6352,0,3.6655,3.6645,3.6662,3.6653,3.6609,3.6618,3.66,3.6573,3.6567,3.6553,3.6549,3.6537,3.653,3.6521,3.6478,3.6447,3.6495,3.6443,3.6478,3.648,3.6491,3.6491,3.6618,3.6489,3.6489,3.6489,3.6489,0,3.6748,3.6769,3.6706,3.6717,3.6738,3.6687,3.671,3.6686,3.6662,3.6666,3.6614,3.6619,3.6562,3.6561,3.6527,3.6542,3.654,3.6523,3.6514,3.6528,3.653,3.6524,3.6518,3.6492,3.6491,3.6491,3.649,0,3.6863,3.6821,3.6836,3.6793,3.6783,3.6801,3.6764,3.6772,3.6742,3.6749,3.6747,3.67,3.6696,3.6652,3.6638,3.6615,3.6644,3.6625,3.6653,3.6647,3.6684,3.6681,3.6812,3.6826,3.6689,3.669,3.6692,0,3.6925,3.694,3.6899,3.6899,3.6883,3.6883,3.6878,3.6828,3.6824,3.6797,3.6808,3.68,3.6791,3.6787,3.6752,3.6741,3.6721,3.6768,3.6719,3.6733,3.6722,3.6721,3.6722,3.6778,3.678,3.6781,3.6782,0,3.704,3.7019,3.7013,3.7001,3.6996,3.6983,3.6967,3.697,3.6915,3.6913,3.6909,3.6902,3.6889,3.6881,3.6864,3.6845,3.6805,3.6798,3.6805,3.682,3.6835,3.6827,3.6681,3.6795,3.6794,3.6793,3.6792,3.6792,3.713,3.7141,3.7114,3.7109,3.7092,3.7079,3.7084,3.7055,3.705,3.7035,3.7006,3.7006,3.6981,3.6954,3.6938,3.6937,3.6913,3.6924,3.6927,3.693,3.6938,3.6836,3.6934,3.6934,3.6933,3.6933,3.6933,0,3.7242,3.7222,3.7219,3.7198,3.7195,3.7157,3.7138,3.7137,3.7138,3.7118,3.711,3.7105,3.7098,3.7062,3.7051,3.7057,3.7038,3.7055,3.7054,3.7051,3.696,3.6955,3.7071,3.7071,3.7071,3.7071,3.7071,3.7071,3.73,3.7316,3.7292,3.7299,3.7278,3.7278,3.727,3.7257,3.7241,3.7238,3.7232,3.7208,3.7181,3.7168,3.7159,3.7149,3.7147,3.7171,3.7154,3.707,3.7057,3.7044,3.7039,3.7171,3.7171,3.7245,3.7245,3.7246]}]]